This is the latest recevied weather packets stored in our database for station/object DB0SMU-12. If no packets are shown the sender has not sent any weather packets the latest 10 day(s).
| Time | Temp. | Humidity | Pressure | Rain* | Wind** | Luminosity | Snow |
|---|---|---|---|---|---|---|---|
| 1777711368 | 17.78° C | 42% | 1024 hPa | 0 mm | - | - | - |
| 1777711187 | 17.22° C | 40% | 1024 hPa | 0 mm | - | - | - |
| 1777711006 | 17.22° C | 43% | 1024.1 hPa | 0 mm | - | - | - |
| 1777710825 | 17.78° C | 42% | 1024.1 hPa | 0 mm | - | - | - |
| 1777710644 | 17.22° C | 44% | 1024 hPa | 0 mm | - | - | - |
| 1777710463 | 17.22° C | 44% | 1024 hPa | 0 mm | - | - | - |
| 1777710282 | 16.67° C | 46% | 1024 hPa | 0 mm | - | - | - |
| 1777710101 | 16.67° C | 45% | 1024 hPa | 0 mm | - | - | - |
| 1777709921 | 16.67° C | 46% | 1024.1 hPa | 0 mm | - | - | - |
| 1777709740 | 16.11° C | 46% | 1024.1 hPa | 0 mm | - | - | - |
| 1777709559 | 16.11° C | 45% | 1024.1 hPa | 0 mm | - | - | - |
| 1777709378 | 16.11° C | 45% | 1024.1 hPa | 0 mm | - | - | - |
| 1777709197 | 16.11° C | 48% | 1024.1 hPa | 0 mm | - | - | - |
| 1777709016 | 15.56° C | 46% | 1024.1 hPa | 0 mm | - | - | - |
| 1777708835 | 15.56° C | 47% | 1024.1 hPa | 0 mm | - | - | - |
| 1777708654 | 15.56° C | 47% | 1024.2 hPa | 0 mm | - | - | - |
| 1777708474 | 15.56° C | 48% | 1024.2 hPa | 0 mm | - | - | - |
| 1777708293 | 15.56° C | 48% | 1024.2 hPa | 0 mm | - | - | - |
| 1777708112 | 15° C | 47% | 1024.2 hPa | 0 mm | - | - | - |
| 1777707931 | 15° C | 49% | 1024.2 hPa | 0 mm | - | - | - |
| 1777707750 | 15° C | 49% | 1024.2 hPa | 0 mm | - | - | - |
| 1777707569 | 15° C | 50% | 1024.3 hPa | 0 mm | - | - | - |
| 1777707388 | 14.44° C | 48% | 1024.3 hPa | 0 mm | - | - | - |
| 1777707207 | 14.44° C | 49% | 1024.3 hPa | 0 mm | - | - | - |
| 1777707026 | 14.44° C | 51% | 1024.4 hPa | 0 mm | - | - | - |
* Rain latest hour (hover to see other rain measurements)
** Current wind speed in m/s (hover to see current wind gust speed)